Vorticity
6 7 12 11 7 16 13 14 17 8 9 10 10 14 11 5 5 6 5 4 5 7
4 3 4 7 12 5 7 -9 2 4 19 15 25 24 23 14 22 6 5 5 5 5
8 7 6 7 6 13 -2 -3 5 5 11 0 -2 9 -5 5 24 18 16 6 6 6
8 6 4 -3 12 14 3 -1 -8 1 -4 3 2 26 -8 -2 -23 3 38 13 7 8
22 12 4 13 12 7 4 18 7 -14 1 -4 -2 90 -40 13 31 12 13 9 14 11
12 9 13 20 10 11 9 11 7 2 -1 -16 -34 11 -8 62 1 13 17 7 7 2
-1 -2 24 13 13 12 5 8 6 4 6 4 -8 -7 32 19 4 9 30 -6 -4 -6
-10 29 14 25 13 2 6 7 2 8 1 -8 4 34 10 -1 10 8 12 16 -0 6
14 14 37 11 23 19 13 6 6 12 41 21 48 -35 27 3 6 8 15 3 5 12
28 21 39 13 8 3 9 47 -41 56 72 19 -26 16 19 8 4 8 6 9 10 9
11 22 1 52 35 29 59 -31 71 46 47 -26 21 51 -4 16 28 8 11 9 9 4
2 -1 -1 10 29 8 52 41 -9 32 0 39 57 61 -1 22 0 2 8 4 6 4
20 16 13 16 1 5 6 23 43 7 21 34 1 -22 -12 -21 8 16 6 3 10 5
30 11 12 -0 8 4 24 15 7 17 36 5 -1 17 8 -4 12 9 4 9 14 11
Height
5671 5675 5679 5681 5684 5686 5689 5691 5693 5695 5696 5697 5697 5699 5701 5703 5705 5707 5709 5712 5715 5718
5654 5659 5664 5667 5670 5673 5675 5678 5680 5682 5683 5683 5682 5683 5684 5687 5690 5693 5695 5699 5701 5704
5638 5643 5648 5652 5656 5659 5661 5663 5667 5669 5668 5669 5669 5670 5670 5668 5668 5672 5677 5682 5686 5691
5621 5626 5631 5635 5641 5645 5646 5648 5652 5654 5655 5652 5654 5654 5654 5657 5657 5659 5664 5668 5673 5677
5603 5609 5614 5618 5624 5629 5631 5631 5636 5638 5636 5638 5643 5623 5631 5645 5649 5649 5652 5657 5660 5664
5588 5591 5595 5601 5606 5611 5615 5617 5620 5624 5623 5625 5627 5612 5616 5628 5631 5636 5639 5645 5646 5647
5574 5577 5579 5582 5585 5591 5596 5599 5601 5604 5607 5607 5611 5609 5610 5613 5620 5624 5626 5631 5635 5637
5559 5561 5562 5564 5569 5575 5576 5579 5584 5586 5586 5589 5590 5592 5598 5602 5607 5610 5613 5618 5621 5623
5539 5544 5546 5547 5551 5556 5560 5564 5565 5571 5570 5567 5571 5577 5583 5586 5592 5596 5600 5603 5606 5610
5521 5528 5532 5532 5536 5542 5545 5550 5548 5542 5552 5555 5555 5562 5567 5571 5577 5581 5586 5590 5592 5596
5511 5515 5520 5517 5522 5527 5529 5532 5526 5539 5540 5543 5545 5552 5549 5556 5562 5568 5572 5575 5578 5582
5498 5502 5506 5506 5511 5516 5515 5512 5517 5522 5528 5530 5533 5535 5540 5546 5551 5555 5559 5561 5563 5567
5485 5489 5492 5493 5497 5502 5504 5506 5508 5514 5519 5522 5526 5530 5530 5534 5540 5543 5545 5548 5549 5551
5468 5472 5479 5485 5487 5491 5495 5498 5501 5503 5510 5511 5514 5519 5522 5523 5526 5525 5529 5532 5535 5537